WA6MEM Weather Reports


Display with metric or nautical units.
time (UTC)temp
F
wind
direction
speed
MPH
gust
MPH
rain 1hr
in
rain 24hr
in
rain mn
in
humidity
%
barometer
mb
20260509121003 54 55 3.0 0.0 0.00 0.00 0.00 96 1011.4
20260509120501 54 78 1.0 0.0 0.00 0.00 0.00 96 1011.4
20260509120002 54 47 1.0 0.0 0.00 0.00 0.00 96 1011.5
20260509115500 54 25 2.0 0.0 0.00 0.00 0.00 96 1011.5
20260509115002 54 5 2.0 0.0 0.00 0.00 0.00 96 1011.5
20260509114627 54 22 2.0 0.0 0.00 0.00 0.00 95 1011.5
20260509114100 54 49 2.0 0.0 0.00 0.00 0.00 95 1011.5
20260509113600 54 355 2.0 0.0 0.00 0.00 0.00 95 1011.5
20260509113134 54 34 2.0 0.0 0.00 0.00 0.00 95 1011.5
20260509112600 54 51 2.0 0.0 0.00 0.00 0.00 96 1011.4
20260509112058 54 75 1.0 0.0 0.00 0.00 0.00 95 1011.4
20260509111558 54 71 1.0 0.0 0.00 0.00 0.00 95 1011.4
20260509111057 55 92 1.0 0.0 0.00 0.00 0.00 95 1011.4
20260509110557 55 99 1.0 0.0 0.00 0.00 0.00 95 1011.4
20260509105557 55 60 2.0 0.0 0.00 0.00 0.00 95 1011.4
20260509105057 55 62 2.0 0.0 0.00 0.00 0.00 95 1011.4
20260509104557 55 81 2.0 0.0 0.00 0.00 0.00 95 1011.4
20260509104056 55 25 1.0 0.0 0.00 0.00 0.00 95 1011.5
20260509103556 55 124 1.0 0.0 0.00 0.00 0.00 95 1011.5
20260509103107 55 57 2.0 0.0 0.00 0.00 0.00 95 1011.5
20260509102556 55 46 2.0 0.0 0.00 0.00 0.00 96 1011.5
20260509102056 55 34 3.0 0.0 0.00 0.00 0.00 95 1011.5
20260509101602 55 35 3.0 0.0 0.00 0.00 0.00 95 1011.5
20260509101055 55 49 2.0 0.0 0.00 0.00 0.00 95 1011.6
20260509100554 55 40 2.0 0.0 0.00 0.00 0.00 95 1011.6
20260509100054 55 41 2.0 0.0 0.00 0.00 0.00 95 1011.6
20260509095553 55 73 1.0 0.0 0.00 0.00 0.00 96 1011.7
20260509095053 55 5 2.0 0.0 0.00 0.00 0.00 96 1011.7
20260509094559 55 27 2.0 0.0 0.00 0.00 0.00 96 1011.7
20260509094058 55 86 1.0 0.0 0.00 0.00 0.00 95 1011.9
20260509093554 54 53 1.0 0.0 0.00 0.00 0.00 95 1011.9
20260509093053 54 98 1.0 0.0 0.00 0.00 0.00 95 1011.9
20260509092552 54 133 1.0 0.0 0.00 0.00 0.00 95 1011.9
20260509092052 54 118 1.0 0.0 0.00 0.00 0.00 95 1011.9
20260509091554 54 112 1.0 0.0 0.00 0.00 0.00 95 1011.9
20260509091051 54 112 1.0 0.0 0.00 0.00 0.00 95 1012.1
20260509090552 54 151 0.0 0.0 0.00 0.00 0.00 95 1012.1
20260509090050 54 111 0.0 0.0 0.00 0.00 0.00 95 1012.1
20260509085550 54 111 0.0 0.0 0.00 0.00 0.00 95 1012.2
20260509085054 54 111 0.0 0.0 0.00 0.00 0.00 95 1012.2
20260509084601 55 111 0.0 0.0 0.00 0.00 0.00 95 1012.2
20260509084050 55 111 2.0 0.0 0.00 0.00 0.00 95 1012.2
20260509083550 55 120 2.0 0.0 0.00 0.00 0.00 95 1012.2
20260509083049 54 69 1.0 0.0 0.00 0.00 0.00 95 1012.2
20260509082549 54 149 0.0 0.0 0.00 0.00 0.00 95 1012.3
20260509082049 54 149 0.0 0.0 0.00 0.00 0.00 95 1012.3
20260509081553 54 143 0.0 0.0 0.00 0.00 0.00 95 1012.3
20260509081049 54 143 0.0 0.0 0.00 0.00 0.00 95 1012.4
20260509080547 54 143 0.0 0.0 0.00 0.00 0.00 95 1012.4
20260509080051 54 143 0.0 0.0 0.00 0.00 0.00 95 1012.4
20260509075547 54 143 0.0 0.0 0.00 0.00 0.00 95 1012.7
20260509075046 54 143 0.0 0.0 0.00 0.00 0.00 95 1012.7
20260509074546 54 143 0.0 0.0 0.00 0.00 0.00 95 1012.7
20260509074046 54 143 0.0 0.0 0.00 0.00 0.00 95 1012.7
20260509073546 54 143 0.0 0.0 0.00 0.00 0.00 95 1012.7
20260509073047 54 143 1.0 0.0 0.00 0.00 0.00 95 1012.7
20260509072548 54 143 0.0 0.0 0.00 0.00 0.00 95 1012.7
20260509072044 54 143 0.0 0.0 0.00 0.00 0.00 95 1012.7
20260509071548 55 143 0.0 0.0 0.00 0.00 0.00 95 1012.7
20260509071044 55 143 0.0 0.0 0.00 0.00 0.00 95 1012.9
20260509070546 55 143 0.0 0.0 0.00 0.00 0.00 95 1012.9
20260509070049 54 143 0.0 0.0 0.00 0.00 0.00 95 1012.9
20260509065542 54 143 0.0 0.0 0.00 0.00 0.00 95 1012.9
20260509065043 54 143 1.0 0.0 0.00 0.00 0.00 95 1012.9
20260509064554 54 143 1.0 0.0 0.00 0.00 0.00 95 1012.9
20260509064041 54 170 0.0 0.0 0.00 0.00 0.00 95 1013.0
20260509063541 54 170 1.0 0.0 0.00 0.00 0.00 95 1013.0
20260509063042 54 170 1.0 0.0 0.00 0.00 0.00 95 1013.0
20260509062542 54 167 1.0 0.0 0.00 0.00 0.00 95 1013.2
20260509062042 54 171 1.0 0.0 0.00 0.00 0.00 95 1013.2
20260509061551 54 180 1.0 0.0 0.00 0.00 0.00 95 1013.2
20260509061042 55 159 1.0 0.0 0.00 0.00 0.00 95 1013.2
20260509060541 55 154 1.0 0.0 0.00 0.00 0.00 95 1013.2
20260509060042 55 183 1.0 0.0 0.00 0.00 0.00 95 1013.2
20260509055540 55 183 1.0 0.0 0.00 0.00 0.00 95 1013.2
20260509055040 55 156 1.0 0.0 0.00 0.00 0.00 95 1013.2
20260509054546 55 195 1.0 0.0 0.00 0.00 0.00 95 1013.2
20260509054040 55 171 1.0 0.0 0.00 0.00 0.00 95 1013.1
20260509053541 55 165 1.0 0.0 0.00 0.00 0.00 95 1013.1
20260509053040 55 182 1.0 0.0 0.00 0.00 0.00 95 1013.1
20260509052542 55 180 1.0 0.0 0.00 0.00 0.00 95 1013.1
20260509052040 55 178 1.0 0.0 0.00 0.00 0.00 95 1013.1
20260509051542 55 228 1.0 0.0 0.00 0.00 0.00 95 1013.1
20260509051040 55 194 1.0 0.0 0.00 0.00 0.00 95 1013.0
20260509050543 55 236 1.0 0.0 0.00 0.00 0.00 95 1013.0
20260509050040 55 166 1.0 0.0 0.00 0.00 0.00 95 1013.0
20260509045539 55 198 1.0 0.0 0.00 0.00 0.00 95 1013.0
20260509045039 55 180 0.0 0.0 0.00 0.00 0.00 95 1013.0
20260509044539 55 202 0.0 0.0 0.00 0.00 0.00 95 1013.0
20260509044039 55 214 0.0 0.0 0.00 0.00 0.00 94 1013.0
20260509043542 55 214 0.0 0.0 0.00 0.00 0.00 94 1013.0
20260509043039 55 216 1.0 0.0 0.00 0.00 0.00 94 1013.0
20260509042538 55 202 2.0 0.0 0.00 0.00 0.00 94 1012.9
20260509042038 55 172 2.0 0.0 0.00 0.00 0.00 94 1012.9
20260509041538 55 194 1.0 0.0 0.00 0.00 0.00 94 1012.9
20260509041039 55 221 1.0 0.0 0.00 0.00 0.00 94 1012.8
20260509040538 55 205 2.0 0.0 0.00 0.00 0.00 94 1012.8
20260509040042 55 216 2.0 0.0 0.00 0.00 0.00 94 1012.8
20260509035539 55 186 1.0 0.0 0.00 0.00 0.00 94 1012.7
20260509035038 55 162 2.0 0.0 0.00 0.00 0.00 94 1012.7
20260509034539 55 180 2.0 0.0 0.00 0.00 0.00 94 1012.7
20260509034036 55 171 2.0 0.0 0.00 0.00 0.00 94 1012.4
20260509033540 55 200 1.0 0.0 0.00 0.00 0.00 94 1012.4
20260509033037 56 191 1.0 0.0 0.00 0.00 0.00 94 1012.4
20260509032538 56 227 2.0 0.0 0.00 0.00 0.00 94 1012.4
20260509032037 56 180 2.0 0.0 0.00 0.00 0.00 94 1012.4
20260509031543 56 212 2.0 0.0 0.00 0.00 0.00 94 1012.4
20260509031037 56 193 2.0 0.0 0.00 0.00 0.00 94 1012.3
20260509030536 56 200 2.0 0.0 0.00 0.00 0.00 94 1012.3
20260509030036 56 198 1.0 0.0 0.00 0.00 0.00 94 1012.3
20260509025535 56 196 1.0 0.0 0.00 0.00 0.00 94 1012.2
20260509025039 56 188 1.0 0.0 0.00 0.00 0.00 94 1012.2
20260509024535 56 187 2.0 0.0 0.00 0.00 0.00 94 1012.2
20260509024036 56 186 2.0 0.0 0.00 0.00 0.00 94 1012.1
20260509023536 56 177 2.0 0.0 0.00 0.00 0.00 94 1012.1
20260509023036 57 229 1.0 0.0 0.00 0.00 0.00 94 1012.1
20260509022535 57 197 2.0 0.0 0.00 0.00 0.00 94 1011.9
20260509022034 57 229 2.0 0.0 0.00 0.00 0.00 94 1011.9
20260509021535 57 182 3.0 0.0 0.00 0.00 0.00 93 1011.9
20260509021037 57 202 3.0 0.0 0.00 0.00 0.00 93 1011.9
20260509020534 57 176 3.0 0.0 0.00 0.00 0.00 93 1011.9
20260509020033 57 247 4.0 0.0 0.00 0.00 0.00 93 1011.9
20260509015533 57 165 4.0 0.0 0.00 0.00 0.00 93 1011.8
20260509015034 58 211 3.0 0.0 0.00 0.00 0.00 93 1011.8
20260509014540 58 198 3.0 0.0 0.00 0.00 0.00 92 1011.8
20260509014033 58 191 3.0 0.0 0.00 0.00 0.00 93 1011.8
20260509013533 58 202 2.0 0.0 0.00 0.00 0.00 92 1011.8
20260509013036 58 279 2.0 0.0 0.00 0.00 0.00 92 1011.8
20260509012533 59 196 2.0 0.0 0.00 0.00 0.00 92 1011.9
20260509012034 59 209 2.0 0.0 0.00 0.00 0.00 92 1011.9
20260509011533 59 242 3.0 0.0 0.00 0.00 0.00 92 1011.9
20260509011032 59 171 4.0 0.0 0.00 0.00 0.00 92 1011.8
20260509010532 59 206 3.0 0.0 0.00 0.00 0.00 92 1011.8
20260509010038 59 166 3.0 0.0 0.00 0.00 0.00 91 1011.8
20260509005533 60 210 3.0 0.0 0.00 0.00 0.00 91 1011.8
20260509005033 60 186 2.0 0.0 0.00 0.00 0.00 91 1011.8
20260509004533 60 162 3.0 0.0 0.00 0.00 0.00 90 1011.8
20260509004032 60 170 3.0 0.0 0.00 0.00 0.00 89 1012.0
20260509003532 60 215 3.0 0.0 0.00 0.00 0.00 89 1012.0
20260509003031 61 185 3.0 0.0 0.00 0.00 0.00 89 1012.0
20260509002530 61 240 4.0 0.0 0.00 0.00 0.00 88 1012.0
20260509002030 62 144 5.0 0.0 0.00 0.00 0.00 86 1012.0
20260509001531 62 211 5.0 0.0 0.00 0.00 0.00 85 1012.0
20260509001030 63 211 4.0 0.0 0.00 0.00 0.00 84 1011.9
20260509000530 63 172 4.0 0.0 0.00 0.00 0.00 84 1011.9
20260509000030 63 199 4.0 0.0 0.00 0.00 0.00 84 1011.9
20260508235531 63 198 4.0 0.0 0.00 0.00 0.00 84 1011.9
20260508235031 64 215 3.0 0.0 0.00 0.00 0.00 83 1011.9
20260508234529 64 236 3.0 0.0 0.00 0.00 0.00 83 1011.9
20260508234030 63 162 3.0 0.0 0.00 0.00 0.00 84 1012.0
20260508233529 64 254 3.0 0.0 0.00 0.00 0.00 83 1012.0
20260508233029 64 204 3.0 0.0 0.00 0.00 0.00 83 1012.0
20260508232528 64 189 3.0 0.0 0.00 0.00 0.00 83 1012.0
20260508232028 64 173 4.0 0.0 0.00 0.00 0.00 82 1012.0
20260508231528 65 158 3.0 0.0 0.00 0.00 0.00 81 1012.0
20260508231027 65 213 3.0 0.0 0.00 0.00 0.00 83 1012.3
20260508230526 64 207 3.0 0.0 0.00 0.00 0.00 82 1012.3
20260508230025 64 245 3.0 0.0 0.00 0.00 0.00 82 1012.3
20260508225528 64 250 2.0 0.0 0.00 0.00 0.00 82 1012.3
20260508225025 64 178 2.0 0.0 0.00 0.00 0.00 83 1012.3
20260508224524 64 215 3.0 0.0 0.00 0.00 0.00 83 1012.3
20260508224023 64 217 3.0 0.0 0.00 0.00 0.00 84 1012.6
20260508223523 64 194 3.0 0.0 0.00 0.00 0.00 84 1012.6
20260508223029 64 194 3.0 0.0 0.00 0.00 0.00 85 1012.6
20260508222522 63 198 3.0 0.0 0.00 0.00 0.00 86 1012.8
20260508222024 63 175 3.0 0.0 0.00 0.00 0.00 86 1012.8
20260508221521 63 183 3.0 0.0 0.00 0.00 0.00 87 1012.8
20260508221021 63 200 3.0 0.0 0.00 0.00 0.00 86 1013.1
20260508220523 63 188 3.0 0.0 0.00 0.00 0.00 86 1013.1
20260508220100 63 172 3.0 0.0 0.00 0.00 0.00 87 1013.1
20260508215520 63 173 4.0 0.0 0.00 0.00 0.00 87 1013.1
20260508215020 63 165 4.0 0.0 0.00 0.00 0.00 85 1013.1
20260508214520 63 190 3.0 0.0 0.00 0.00 0.00 87 1013.1
20260508214018 62 174 4.0 0.0 0.00 0.00 0.00 86 1013.3
20260508213517 62 172 3.0 0.0 0.00 0.00 0.00 87 1013.3
20260508213017 62 360 3.0 0.0 0.00 0.00 0.00 87 1013.3
20260508212518 62 178 4.0 0.0 0.00 0.00 0.00 86 1013.6
20260508212017 62 152 4.0 0.0 0.00 0.00 0.00 88 1013.6
20260508211522 62 199 4.0 0.0 0.00 0.00 0.00 88 1013.6
20260508211016 62 169 4.0 0.0 0.00 0.00 0.00 87 1013.8
20260508210516 62 148 3.0 0.0 0.00 0.00 0.00 88 1013.8
20260508210015 62 148 3.0 0.0 0.00 0.00 0.00 88 1013.8
20260508205514 62 173 3.0 0.0 0.00 0.00 0.00 88 1013.8
20260508205014 62 184 3.0 0.0 0.00 0.00 0.00 89 1013.8
20260508204513 61 225 3.0 0.0 0.00 0.00 0.00 91 1013.8
20260508204017 61 182 4.0 0.0 0.00 0.00 0.00 90 1013.8
20260508203512 61 150 3.0 0.0 0.00 0.00 0.00 90 1013.8
20260508203012 61 181 3.0 0.0 0.00 0.00 0.00 90 1013.8
20260508202513 61 192 4.0 0.0 0.00 0.00 0.00 91 1014.0
20260508202011 61 169 4.0 0.0 0.00 0.00 0.00 91 1014.0
20260508201512 61 186 3.0 0.0 0.00 0.00 0.00 91 1014.0
20260508201011 60 149 3.0 0.0 0.00 0.00 0.00 92 1014.2
20260508200511 60 115 3.0 0.0 0.00 0.00 0.00 91 1014.2
20260508200010 61 155 3.0 0.0 0.00 0.00 0.00 92 1014.2
20260508195510 61 200 3.0 0.0 0.00 0.00 0.00 93 1014.3
20260508195008 60 211 3.0 0.0 0.00 0.00 0.00 94 1014.3
20260508194508 60 166 3.0 0.0 0.00 0.00 0.00 94 1014.3
20260508194008 60 206 3.0 0.0 0.00 0.00 0.00 94 1014.4
20260508193506 60 192 3.0 0.0 0.00 0.00 0.00 95 1014.4
20260508193005 59 165 3.0 0.0 0.00 0.00 0.00 95 1014.4
20260508192504 59 228 3.0 0.0 0.00 0.00 0.00 95 1014.5
20260508192004 59 146 2.0 0.0 0.00 0.00 0.00 96 1014.5
20260508191505 58 183 2.0 0.0 0.00 0.00 0.00 96 1014.8
20260508191002 58 201 2.0 0.0 0.00 0.00 0.00 96 1014.8
20260508190504 58 149 2.0 0.0 0.00 0.00 0.00 96 1014.8
20260508190108 57 204 2.0 0.0 0.00 0.00 0.00 96 1014.8
20260508185559 57 209 2.0 0.0 0.00 0.00 0.00 95 1015.0
20260508185059 57 200 2.0 0.0 0.00 0.00 0.00 96 1015.0
20260508184558 57 219 2.0 0.0 0.00 0.00 0.00 96 1015.0
20260508184057 57 185 2.0 0.0 0.00 0.00 0.00 96 1015.0
20260508183557 57 178 2.0 0.0 0.00 0.00 0.00 96 1015.0
20260508183057 57 195 2.0 0.0 0.00 0.00 0.00 96 1015.0
20260508182556 57 161 2.0 0.0 0.00 0.00 0.00 96 1015.0
20260508182057 57 204 2.0 0.0 0.00 0.00 0.00 96 1015.0
20260508181608 57 207 2.0 0.0 0.00 0.00 0.00 96 1015.0
20260508181056 57 158 2.0 0.0 0.00 0.00 0.00 96 1015.0
20260508180556 56 203 2.0 0.0 0.00 0.00 0.00 96 1015.0
20260508180105 56 155 2.0 0.0 0.00 0.00 0.00 96 1015.0
20260508175555 56 173 2.0 0.0 0.00 0.00 0.00 96 1015.1
20260508175055 56 236 2.0 0.0 0.00 0.00 0.00 96 1015.1
20260508174609 56 84 1.0 0.0 0.00 0.00 0.00 96 1015.1
20260508174056 56 42 1.0 0.0 0.00 0.00 0.00 96 1015.2
20260508173554 56 53 1.0 0.0 0.00 0.00 0.00 96 1015.2
20260508173055 56 45 1.0 0.0 0.00 0.00 0.00 96 1015.2
20260508172554 56 47 1.0 0.0 0.00 0.00 0.00 96 1015.3
20260508172053 56 72 1.0 0.0 0.00 0.00 0.00 96 1015.3
20260508171553 56 50 2.0 0.0 0.00 0.00 0.00 96 1015.3
20260508171056 56 355 2.0 0.0 0.00 0.00 0.00 96 1015.1
20260508170552 56 96 2.0 0.0 0.00 0.00 0.00 96 1015.1
20260508170054 56 82 2.0 0.0 0.00 0.00 0.00 96 1015.1
20260508165550 56 94 2.0 0.0 0.00 0.00 0.00 96 1015.1
20260508165050 56 105 2.0 0.0 0.00 0.00 0.00 96 1015.1
20260508164551 56 150 2.0 0.0 0.00 0.00 0.00 96 1015.1
20260508164051 56 106 2.0 0.0 0.00 0.00 0.00 96 1015.1
20260508163553 55 150 2.0 0.0 0.00 0.00 0.00 96 1015.1
20260508163050 55 67 3.0 0.0 0.00 0.00 0.00 96 1015.1
20260508162550 55 100 2.0 0.0 0.00 0.00 0.00 96 1015.1
20260508162050 55 94 2.0 0.0 0.00 0.00 0.00 96 1015.1
20260508161550 55 63 2.0 0.0 0.00 0.00 0.00 96 1015.1
20260508161049 55 85 3.0 0.0 0.00 0.00 0.00 96 1015.1
20260508160553 55 5 3.0 0.0 0.00 0.00 0.00 96 1015.1
20260508160048 55 71 2.0 0.0 0.00 0.00 0.00 96 1015.1
20260508155549 55 82 2.0 0.0 0.00 0.00 0.00 96 1015.0
20260508155048 55 73 2.0 0.0 0.00 0.00 0.00 96 1015.0
20260508154549 55 76 2.0 0.0 0.00 0.00 0.00 96 1015.0
20260508154048 55 42 1.0 0.0 0.00 0.00 0.00 96 1014.9
20260508153548 55 19 2.0 0.0 0.00 0.00 0.00 96 1014.9
20260508153048 55 59 3.0 0.0 0.00 0.00 0.00 96 1014.9
20260508152551 55 74 3.0 0.0 0.00 0.00 0.00 96 1015.1
20260508152047 55 49 3.0 0.0 0.00 0.00 0.00 96 1015.1
20260508151547 55 75 2.0 0.0 0.00 0.00 0.00 96 1015.1
20260508151047 55 132 1.0 0.0 0.00 0.00 0.00 96 1015.1
20260508150547 55 79 1.0 0.0 0.00 0.00 0.00 96 1015.1
20260508150046 55 36 3.0 0.0 0.00 0.00 0.00 96 1015.1
20260508145546 55 38 3.0 0.0 0.00 0.00 0.00 96 1015.1
20260508145045 55 30 3.0 0.0 0.00 0.00 0.00 96 1015.1
20260508144545 55 68 3.0 0.0 0.00 0.00 0.00 96 1015.1
20260508144045 55 130 2.0 0.0 0.00 0.00 0.00 96 1015.1
20260508143545 55 36 2.0 0.0 0.00 0.00 0.00 95 1015.1
20260508143051 55 38 2.0 0.0 0.00 0.00 0.00 95 1015.1
20260508142544 55 54 2.0 0.0 0.00 0.00 0.00 95 1015.0
20260508142044 55 76 3.0 0.0 0.00 0.00 0.00 95 1015.0
20260508141555 55 16 3.0 0.0 0.00 0.00 0.00 95 1015.0
20260508141043 55 53 2.0 0.0 0.00 0.00 0.00 95 1014.5
20260508140543 55 78 1.0 0.0 0.00 0.00 0.00 95 1014.5
20260508140042 55 101 1.0 0.0 0.00 0.00 0.00 95 1014.5
20260508135542 55 105 2.0 0.0 0.00 0.00 0.00 95 1014.6
20260508135043 55 97 2.0 0.0 0.00 0.00 0.00 95 1014.6
20260508134555 55 136 2.0 0.0 0.00 0.00 0.00 95 1014.6
20260508134042 55 109 3.0 0.0 0.00 0.00 0.00 95 1014.6
20260508133542 55 111 1.0 0.0 0.00 0.00 0.00 95 1014.6
20260508133041 55 62 1.0 0.0 0.00 0.00 0.00 95 1014.6
20260508132541 55 78 2.0 0.0 0.00 0.00 0.00 95 1014.5
20260508132041 55 142 2.0 0.0 0.00 0.00 0.00 95 1014.5
20260508131540 55 116 2.0 0.0 0.00 0.00 0.00 95 1014.5
20260508131040 55 74 2.0 0.0 0.00 0.00 0.00 95 1014.2
20260508130543 55 78 2.0 0.0 0.00 0.00 0.00 95 1014.2
20260508130040 55 78 2.0 0.0 0.00 0.00 0.00 95 1014.2
20260508125539 55 63 2.0 0.0 0.00 0.00 0.00 95 1014.0
20260508125039 55 65 2.0 0.0 0.00 0.00 0.00 95 1014.0
20260508124539 55 71 2.0 0.0 0.00 0.00 0.00 95 1014.0
20260508124039 55 71 2.0 0.0 0.00 0.00 0.00 95 1013.9
20260508123538 55 71 3.0 0.0 0.00 0.00 0.00 95 1013.9
20260508123040 55 61 3.0 0.0 0.00 0.00 0.00 95 1013.9
20260508122537 55 71 3.0 0.0 0.00 0.00 0.00 95 1013.8
20260508122038 55 98 3.0 0.0 0.00 0.00 0.00 95 1013.8
20260508121541 55 61 2.0 0.0 0.00 0.00 0.00 95 1013.8
20260508121038 55 163 2.0 0.0 0.00 0.00 0.00 95 1013.6